User: anonymous   Login
Location: Unspecified
(0.0000°N, 0.0000°E)
Time: 15:26:13
(UTC+00:00)
Language:

SNUSAT-1 (2) - Orbit

View from above orbital plane
View from above orbital plane
View from above satellite
View from above satellite

Ground track
Ground track

The orbit data is extracted from the following two-line orbital elements,

1 42733U 98067MN  18345.54089412  .00070053  00000-0  30180-3 0  9993
2 42733  51.6259 163.9105 0004924 172.3135 187.7944 15.84326783 88356
Epoch (UTC): 11 December 2018 12:58:53
Eccentricity: 0.0004924
inclination: 51.6259°
perigee height: 315 km
apogee height: 321 km
right ascension of ascending node: 163.9105°
argument of perigee: 172.3135°
revolutions per day: 15.84326783
mean anomaly at epoch: 187.7944°
orbit number at epoch: 8835

The dashed part of the orbit path shows where the satellite is in the earth's shadow,  

DLR